DW7807 Weather Reports


time (UTC)temp
C
wind
direction
speed
KPH
gust
KPH
rain 1hr
cm
rain 24hr
cm
rain mn
cm
humidity
%
barometer
mb
20210927080133 11 93 0.0 0.0 0.00 0.03 0.00 82 1020.8
20210927074618 11 93 0.0 0.0 0.00 0.03 0.00 82 1020.8
20210927073246 11 94 0.0 0.0 0.00 0.03 0.00 82 1020.8
20210927071624 11 94 0.0 0.0 0.00 0.03 0.00 82 1020.7
20210927070109 11 94 0.0 0.0 0.00 0.03 0.00 83 1020.8
20210927064708 11 93 0.0 0.0 0.00 0.03 0.00 83 1021.0
20210927063224 11 92 0.0 0.0 0.00 0.03 0.00 83 1020.9
20210927061631 11 92 0.0 0.0 0.00 0.03 0.00 83 1020.9
20210927060215 11 92 0.0 0.0 0.00 0.03 0.00 83 1020.7
20210927054546 11 92 0.0 0.0 0.00 0.03 0.00 83 1020.6
20210927053112 11 92 0.0 0.0 0.00 0.03 0.00 83 1020.4
20210927051545 11 92 0.0 0.0 0.00 0.03 0.00 83 1020.4
20210927050147 11 92 0.0 0.0 0.00 0.03 0.00 83 1020.3
20210927044616 11 92 0.0 0.0 0.00 0.03 0.00 82 1020.5
20210927043106 11 92 0.0 0.0 0.00 0.03 0.00 81 1020.5
20210927041548 11 91 0.0 0.0 0.00 0.03 0.00 80 1020.6
20210927040109 11 91 0.0 0.0 0.00 0.03 0.00 79 1020.5
20210927034534 12 91 0.0 0.0 0.00 0.03 0.03 78 1020.3
20210927033046 12 91 0.0 0.0 0.00 0.03 0.03 77 1020.1
20210927031611 12 92 0.0 0.0 0.00 0.03 0.03 75 1020.2
20210927030033 12 202 0.0 0.0 0.00 0.03 0.03 73 1020.2
20210927024554 13 203 0.0 0.0 0.00 0.03 0.03 72 1020.2
20210927023045 13 223 0.0 0.0 0.00 0.03 0.03 70 1020.1
20210927021542 13 223 0.0 0.0 0.00 0.03 0.03 68 1020.2
20210927020032 13 263 0.0 0.0 0.00 0.03 0.03 67 1020.1
20210927014536 14 271 0.0 0.0 0.00 0.03 0.03 64 1020.1
20210927013033 14 272 0.0 0.0 0.00 0.03 0.03 63 1020.1
20210927011530 14 273 0.0 0.0 0.00 0.03 0.03 63 1020.2
20210927010043 15 273 0.0 0.0 0.00 0.03 0.03 61 1020.1
20210927004537 15 274 0.0 0.0 0.00 0.03 0.03 60 1019.9
20210927003040 15 274 0.0 0.0 0.00 0.03 0.03 59 1019.9
20210927001617 15 274 0.0 0.0 0.00 0.03 0.03 59 1019.9
20210927000050 15 285 0.0 0.0 0.00 0.03 0.03 60 1019.9
20210926234532 15 285 0.0 0.0 0.00 0.03 0.03 59 1019.8
20210926233045 15 287 0.0 0.0 0.00 0.03 0.03 59 1019.8
20210926231546 16 286 0.0 0.0 0.00 0.03 0.03 59 1019.8
20210926230031 16 286 0.0 6.4 0.00 0.03 0.03 58 1019.8
20210926224528 17 287 1.6 6.4 0.00 0.03 0.03 57 1019.7
20210926223025 17 287 3.2 11.3 0.00 0.03 0.03 56 1019.7
20210926221538 17 286 3.2 8.0 0.00 0.03 0.03 56 1019.5
20210926220023 18 289 4.8 14.5 0.00 0.03 0.03 53 1019.6
20210926214536 18 259 6.4 16.1 0.00 0.05 0.03 52 1019.6
20210926213021 18 232 8.0 16.1 0.00 0.05 0.03 52 1019.6
20210926211533 18 302 11.3 22.5 0.00 0.05 0.03 51 1019.7
20210926210036 18 309 6.4 14.5 0.00 0.05 0.03 52 1019.6
20210926204521 18 292 8.0 14.5 0.00 0.05 0.03 52 1019.6
20210926203025 18 291 6.4 19.3 0.00 0.05 0.03 52 1019.7
20210926201519 18 241 12.9 19.3 0.00 0.05 0.03 51 1019.7
20210926200051 18 279 6.4 19.3 0.00 0.05 0.03 53 1019.6
20210926194515 18 311 4.8 20.9 0.00 0.05 0.03 56 1019.6
20210926193013 17 275 9.7 19.3 0.00 0.05 0.03 53 1019.6
20210926191512 17 298 9.7 17.7 0.00 0.05 0.03 55 1019.7
20210926190038 17 284 11.3 17.7 0.00 0.05 0.03 56 1019.8
20210926184515 17 267 11.3 29.0 0.00 0.05 0.03 56 1020.1
20210926183009 17 277 8.0 20.9 0.00 0.05 0.03 57 1020.3
20210926181507 17 272 8.0 16.1 0.00 0.05 0.03 57 1020.5
20210926180005 17 285 11.3 17.7 0.00 0.05 0.03 59 1020.8
20210926174505 17 332 9.7 19.3 0.00 0.05 0.03 60 1020.9
20210926171622 16 298 8.0 17.7 0.00 0.05 0.03 62 1021.1
20210926170128 16 298 12.9 22.5 0.00 0.05 0.03 62 1021.2
20210926164626 16 309 9.7 20.9 0.00 0.05 0.03 65 1021.1
20210926163126 15 279 6.4 25.7 0.00 0.05 0.03 66 1021.2
20210926161643 15 260 11.3 19.3 0.00 0.05 0.03 70 1021.4
20210926160115 15 262 11.3 24.1 0.00 0.05 0.03 71 1021.6
20210926154605 15 298 11.3 22.5 0.00 0.05 0.03 73 1021.5
20210926153204 14 265 12.9 22.5 0.00 0.05 0.03 72 1021.5
20210926151614 13 296 4.8 16.1 0.00 0.05 0.03 77 1021.4
20210926150124 13 300 9.7 16.1 0.00 0.05 0.03 77 1021.4
20210926144540 12 308 6.4 17.7 0.00 0.05 0.03 81 1021.4
20210926143121 12 299 0.0 0.0 0.00 0.05 0.03 85 1021.5
20210926141533 11 227 0.0 0.0 0.00 0.05 0.03 89 1021.2
20210926140040 10 224 0.0 0.0 0.00 0.05 0.03 91 1021.2
20210926134527 10 217 0.0 0.0 0.00 0.05 0.03 92 1021.2
20210926133026 9 158 0.0 0.0 0.00 0.05 0.03 92 1021.1
20210926131548 9 144 0.0 0.0 0.00 0.05 0.03 92 1021.0
20210926130106 8 142 0.0 0.0 0.00 0.05 0.03 92 1020.7
20210926124605 8 142 0.0 0.0 0.00 0.05 0.03 92 1020.6
20210926123019 8 131 0.0 0.0 0.00 0.05 0.03 92 1020.5
20210926121537 8 127 0.0 0.0 0.00 0.05 0.03 92 1020.4
20210926120034 8 117 0.0 0.0 0.00 0.05 0.03 92 1020.4
20210926114523 8 118 0.0 0.0 0.00 0.05 0.03 92 1020.2
20210926113021 8 263 0.0 0.0 0.00 0.05 0.03 92 1020.2
20210926111544 8 264 0.0 0.0 0.00 0.05 0.03 92 1020.2
20210926110013 8 264 0.0 0.0 0.00 0.05 0.03 92 1020.0
20210926104512 8 264 0.0 0.0 0.00 0.05 0.03 92 1019.7
20210926103025 8 264 0.0 0.0 0.03 0.05 0.03 92 1019.7
20210926101522 8 265 0.0 0.0 0.03 0.05 0.03 92 1019.5
20210926100010 8 265 0.0 0.0 0.03 0.05 0.03 92 1019.6
20210926094508 8 265 0.0 0.0 0.03 0.05 0.03 92 1019.4
20210926093019 9 265 0.0 0.0 0.00 0.03 0.00 92 1019.4
20210926091508 9 265 0.0 0.0 0.00 0.03 0.00 92 1019.4
20210926090003 10 265 0.0 0.0 0.00 0.03 0.00 92 1019.3
20210926084502 10 265 0.0 0.0 0.00 0.03 0.00 91 1019.2
20210926083001 10 265 0.0 0.0 0.00 0.03 0.00 91 1019.3
20210926081618 10 265 0.0 0.0 0.00 0.03 0.00 91 1019.2